timestamp,surface_pressure_avg,surface_temp_avg,battery_voltage,lat,long
2021-01-23 00:09:01+00:00,262.2381,2.8,12.73,47.84626,-54.09684
2021-01-23 00:19:01+00:00,263.4564,2.8,12.65,47.84626,-54.09684
2021-01-23 00:29:01+00:00,262.973,2.8,12.65,47.84626,-54.09684
2021-01-23 00:39:01+00:00,261.21299999999997,2.8,12.65,47.84626,-54.09684
2021-01-23 00:49:01+00:00,265.978,2.8,12.65,47.84626,-54.09684
2021-01-23 00:59:01+00:00,271.918,2.8,12.65,47.84626,-54.09684
2021-01-23 01:09:01+00:00,263.8031,2.79,12.65,47.84626,-54.09684
2021-01-23 01:19:01+00:00,253.518,2.71,12.65,47.84626,-54.09684
2021-01-23 01:29:01+00:00,254.9831,2.7,12.65,47.84626,-54.09684
2021-01-23 01:39:01+00:00,259.0397,2.7,12.65,47.84626,-54.09684
2021-01-23 01:49:01+00:00,257.2464,2.7,12.65,47.84626,-54.09684
2021-01-23 01:59:01+00:00,254.228,2.7,12.65,47.84626,-54.09684
2021-01-23 02:09:01+00:00,254.1348,2.7,12.65,47.84626,-54.09684
2021-01-23 02:19:01+00:00,251.4514,2.7,12.65,47.84626,-54.09684
2021-01-23 02:29:01+00:00,253.6865,2.7,12.65,47.84626,-54.09684
2021-01-23 02:39:01+00:00,261.5281,2.7,12.65,47.84626,-54.09684
2021-01-23 02:49:01+00:00,264.5714,2.7,12.65,47.84626,-54.09684
2021-01-23 02:59:01+00:00,264.1464,2.7,12.65,47.84626,-54.09684
2021-01-23 03:09:01+00:00,265.2764,2.7,12.65,47.84626,-54.09684
2021-01-23 03:19:01+00:00,275.0281,2.7,12.65,47.84626,-54.09684
2021-01-23 03:29:01+00:00,275.8297,2.7,12.65,47.84626,-54.09684
2021-01-23 03:39:01+00:00,274.6681,2.7,12.65,47.84626,-54.09684
2021-01-23 03:49:01+00:00,279.4814,2.7,12.65,47.84626,-54.09684
2021-01-23 03:59:01+00:00,290.0813,2.7,12.65,47.84626,-54.09684
2021-01-23 04:09:01+00:00,291.5897,2.7,12.65,47.84626,-54.09684
2021-01-23 04:19:01+00:00,295.593,2.6,12.65,47.84626,-54.09684
2021-01-23 04:29:01+00:00,299.728,2.61,12.65,47.84626,-54.09684
2021-01-23 04:39:01+00:00,305.4531,2.65,12.65,47.84626,-54.09684
2021-01-23 04:49:01+00:00,310.1581,2.6,12.65,47.84626,-54.09684
2021-01-23 04:59:01+00:00,318.9264,2.6,12.65,47.84626,-54.09684
2021-01-23 05:09:01+00:00,323.058,2.6,12.65,47.84626,-54.09684
2021-01-23 05:19:01+00:00,324.218,2.5,12.65,47.84626,-54.09684
2021-01-23 05:29:01+00:00,330.718,2.48,12.65,47.84626,-54.09684
2021-01-23 05:39:01+00:00,334.8146,2.4,12.65,47.84626,-54.09684
2021-01-23 05:49:01+00:00,335.3796,2.4,12.65,47.84626,-54.09684
2021-01-23 05:59:01+00:00,336.0945,2.33,12.65,47.84626,-54.09684
2021-01-23 06:09:01+00:00,335.3780000000001,2.32,12.65,47.84626,-54.09684
2021-01-23 06:19:01+00:00,335.5529,2.3,12.65,47.84626,-54.09684
2021-01-23 06:29:01+00:00,336.5013,2.3,12.65,47.84626,-54.09684
2021-01-23 06:39:01+00:00,340.603,2.1,12.65,47.84626,-54.09684
2021-01-23 06:49:01+00:00,343.4962,1.8,12.65,47.84626,-54.09684
2021-01-23 06:59:01+00:00,342.6213,1.7,12.65,47.84626,-54.09684
2021-01-23 07:09:01+00:00,344.8347,1.6,12.65,47.84626,-54.09684
2021-01-23 07:19:01+00:00,346.9246,1.66,12.57,47.84626,-54.09684
2021-01-23 07:29:01+00:00,344.1046,1.8,12.57,47.84626,-54.09684
2021-01-23 07:39:01+00:00,341.5779,2.04,12.57,47.84626,-54.09684
2021-01-23 07:49:01+00:00,344.9113,2.2,12.57,47.84626,-54.09684
2021-01-23 07:59:01+00:00,347.2028,2.25,12.57,47.84626,-54.09684
2021-01-23 08:09:01+00:00,347.6246,2.2,12.57,47.84626,-54.09684
2021-01-23 08:19:01+00:00,345.4446,2.0,12.57,47.84626,-54.09684
2021-01-23 08:29:01+00:00,344.0213,1.9,12.57,47.84626,-54.09684
2021-01-23 08:39:01+00:00,343.333,1.8,12.57,47.84626,-54.09684
2021-01-23 08:49:01+00:00,347.0247,1.7,12.57,47.84626,-54.09684
2021-01-23 08:59:01+00:00,342.048,1.6,12.57,47.84626,-54.09684
2021-01-23 09:09:01+00:00,332.5779,1.6,12.57,47.84626,-54.09684
2021-01-23 09:19:01+00:00,327.5413,1.6,12.57,47.84626,-54.09684
2021-01-23 09:29:01+00:00,323.2297,2.23,12.57,47.84626,-54.09684
2021-01-23 09:39:01+00:00,316.6746,2.3,12.57,47.84626,-54.09684
2021-01-23 09:49:01+00:00,310.548,2.2,12.57,47.84626,-54.09684
2021-01-23 09:59:01+00:00,301.9464,2.38,12.57,47.84626,-54.09684
2021-01-23 10:09:01+00:00,297.828,2.59,12.57,47.84626,-54.09684
2021-01-23 10:19:01+00:00,294.2497,2.5,12.57,47.84626,-54.09684
2021-01-23 10:29:01+00:00,286.9613,2.38,12.57,47.84626,-54.09684
2021-01-23 10:39:01+00:00,276.4948,2.1,12.57,47.84626,-54.09684
2021-01-23 10:49:01+00:00,275.5281,2.08,12.57,47.84626,-54.09684
2021-01-23 10:59:01+00:00,275.8014,2.08,12.57,47.84626,-54.09684
2021-01-23 11:09:01+00:00,271.5131,2.1,12.57,47.84626,-54.09684
2021-01-23 11:19:01+00:00,264.5398,2.09,12.57,47.84626,-54.09684
2021-01-23 11:29:01+00:00,262.053,2.0,12.57,47.84626,-54.09684
2021-01-23 11:39:01+00:00,262.4348,2.0,12.57,47.84626,-54.09684
2021-01-23 11:49:01+00:00,263.1931,2.0,12.57,47.84626,-54.09684
2021-01-23 11:59:01+00:00,260.4514,2.04,12.57,47.84626,-54.09684
2021-01-23 12:09:01+00:00,257.713,2.0,12.57,47.84626,-54.09684
2021-01-23 12:19:01+00:00,257.2314,2.0,14.56,47.84626,-54.09684
2021-01-23 12:29:01+00:00,258.5731,2.0,14.56,47.84626,-54.09684
2021-01-23 12:39:01+00:00,259.8831,2.0,14.56,47.84626,-54.09684
2021-01-23 12:49:01+00:00,260.2148,2.0,14.56,47.84626,-54.09684
2021-01-23 12:59:01+00:00,262.6614,1.95,14.56,47.84626,-54.09684
2021-01-23 13:09:01+00:00,263.718,1.9,14.56,47.84626,-54.09684
2021-01-23 13:19:01+00:00,261.7781,1.8,14.88,47.84626,-54.09684
2021-01-23 13:29:01+00:00,258.3781,1.7,14.88,47.84626,-54.09684
2021-01-23 13:39:01+00:00,264.4214,1.7,14.88,47.84626,-54.09684
2021-01-23 13:49:01+00:00,268.1513,1.8,14.88,47.84626,-54.09684
2021-01-23 13:59:01+00:00,262.8113,1.8,14.88,47.84626,-54.09684
2021-01-23 14:09:01+00:00,259.1381,1.7,14.88,47.84626,-54.09684
2021-01-23 14:19:01+00:00,263.058,1.83,14.88,47.84626,-54.09684
2021-01-23 14:29:01+00:00,261.8031,2.06,14.88,47.84626,-54.09684
2021-01-23 14:39:01+00:00,253.5014,2.32,14.88,47.84626,-54.09684
2021-01-23 14:49:01+00:00,254.0831,2.4,14.88,47.84626,-54.09684
2021-01-23 14:59:01+00:00,258.2597,2.46,14.88,47.84626,-54.09684
2021-01-23 15:09:01+00:00,259.2797,2.47,14.88,47.84626,-54.09684
2021-01-23 15:19:01+00:00,256.6614,2.5,14.32,47.84626,-54.09684
2021-01-23 15:29:01+00:00,257.7414,2.52,14.32,47.84626,-54.09684
2021-01-23 15:39:01+00:00,261.6681,2.57,14.32,47.84626,-54.09684
2021-01-23 15:49:01+00:00,265.1781,2.5,14.32,47.84626,-54.09684
2021-01-23 15:59:01+00:00,267.653,2.4,14.32,47.84626,-54.09684
2021-01-23 16:09:01+00:00,267.203,2.3,14.32,47.84626,-54.09684
2021-01-23 16:19:01+00:00,266.7897,2.2,14.64,47.84626,-54.09684
2021-01-23 16:29:01+00:00,271.7097,2.15,14.64,47.84626,-54.09684
2021-01-23 16:39:01+00:00,277.0914,2.06,14.64,47.84626,-54.09684
2021-01-23 16:49:01+00:00,277.1514,2.0,14.64,47.84626,-54.09684
2021-01-23 16:59:01+00:00,278.9514,2.02,14.64,47.84626,-54.09684
2021-01-23 17:09:01+00:00,286.5681,2.0,14.64,47.84626,-54.09684
2021-01-23 17:19:01+00:00,287.423,2.0,14.32,47.84626,-54.09684
2021-01-23 17:29:01+00:00,284.4814,2.04,14.32,47.84626,-54.09684
2021-01-23 17:39:01+00:00,291.058,2.14,14.32,47.84626,-54.09684
2021-01-23 17:49:01+00:00,298.1863,2.24,14.32,47.84626,-54.09684
2021-01-23 17:59:01+00:00,297.508,2.44,14.32,47.84626,-54.09684
2021-01-23 18:09:01+00:00,298.8846,2.48,14.32,47.84626,-54.09684
2021-01-23 18:19:01+00:00,305.5496,2.5,14.0,47.84626,-54.09684
2021-01-23 18:29:01+00:00,304.9347,2.55,14.0,47.84626,-54.09684
2021-01-23 18:39:01+00:00,298.903,2.6,14.0,47.84626,-54.09684
2021-01-23 18:49:01+00:00,302.8113,2.6,14.0,47.84626,-54.09684
2021-01-23 18:59:01+00:00,307.968,2.64,14.0,47.84626,-54.09684
2021-01-23 19:09:01+00:00,307.598,2.62,14.0,47.84626,-54.09684
2021-01-23 19:19:01+00:00,309.798,2.6,13.84,47.84626,-54.09684
2021-01-23 19:29:01+00:00,315.5347,2.6,13.84,47.84626,-54.09684
2021-01-23 19:39:01+00:00,316.1913,2.63,13.84,47.84626,-54.09684
2021-01-23 19:49:01+00:00,312.7279,2.6,13.84,47.84626,-54.09684
2021-01-23 19:59:01+00:00,315.1746,2.6,13.84,47.84626,-54.09684
2021-01-23 20:09:01+00:00,317.2497,2.6,13.84,47.84626,-54.09684
2021-01-23 20:19:01+00:00,314.6597,2.6,13.44,47.84626,-54.09684
2021-01-23 20:29:01+00:00,310.498,2.5,13.44,47.84626,-54.09684
2021-01-23 20:39:01+00:00,311.9314,2.5,13.44,47.84626,-54.09684
2021-01-23 20:49:01+00:00,311.5497,2.2,13.44,47.84626,-54.09684
2021-01-23 20:59:01+00:00,309.7147,2.0,13.44,47.84626,-54.09684
2021-01-23 21:09:01+00:00,307.3414,1.9,13.44,47.84626,-54.09684
2021-01-23 21:19:01+00:00,305.0113,1.9,13.05,47.84626,-54.09684
2021-01-23 21:29:01+00:00,303.7263,1.9,13.05,47.84626,-54.09684
2021-01-23 21:39:01+00:00,296.9164,1.94,13.05,47.84626,-54.09684
2021-01-23 21:49:01+00:00,289.8647,1.97,13.05,47.84626,-54.09684
2021-01-23 21:59:01+00:00,288.8813,1.98,13.05,47.84626,-54.09684
2021-01-23 22:09:01+00:00,287.858,2.0,13.05,47.84626,-54.09684
2021-01-23 22:19:01+00:00,281.4064,2.1,12.73,47.84626,-54.09684
2021-01-23 22:29:01+00:00,274.7115,2.17,12.73,47.84626,-54.09684
2021-01-23 22:39:01+00:00,272.9464,2.16,12.73,47.84626,-54.09684
2021-01-23 22:49:01+00:00,273.293,2.2,12.73,47.84626,-54.09684
2021-01-23 22:59:01+00:00,271.7581,2.3,12.73,47.84626,-54.09684
2021-01-23 23:09:01+00:00,266.1031,2.24,12.73,47.84626,-54.09684
2021-01-23 23:19:01+00:00,260.4515,2.2,12.65,47.84626,-54.09684
2021-01-23 23:29:01+00:00,260.4147,2.25,12.65,47.84626,-54.09684
2021-01-23 23:39:01+00:00,260.5897,2.38,12.65,47.84626,-54.09684
2021-01-23 23:49:01+00:00,257.5264,2.51,12.65,47.84626,-54.09684
2021-01-23 23:59:01+00:00,253.0031,2.6,12.65,47.84626,-54.09684
